Flag for Germany Weather past 2 weeks in Waren (Müritz), Mecklenburg-Western Pomerania, Germany

Now
55 °F

Passing clouds.


Feels Like: 54 °F
Forecast: 56 / 81 °F
Wind: 6 mph from East

Location: Laage

Current Time: Aug 2, 2015 at 2:38:52 AM

Latest Report: Aug 2, 2015 at 1:20 AM


Visibility: N/A

Pressure: 30.07 "Hg

Humidity: 88%

Dew point: 52 °F

Location of Waren (Müritz)Location

Historic Weather in Waren (Müritz) — Graph

°F

Waren (Müritz) temperature yesterday

Maximum temperature yesterday: 72 °F (at 6:20 PM)
Minimum temperature yesterday: 41 °F (at 5:20 AM)
Average temperature yesterday: 57 °F

Past Weeks' High & Low Weather Summary

 TemperatureHumidityPressure
High81 °F (Jul 22, 4:20 PM)100% (Jul 18, 6:20 AM)30.09 "Hg (Jul 18, 6:20 AM)
Low41 °F (Aug 1, 5:20 AM)36% (Jul 24, 4:20 PM)29.45 "Hg (Jul 25, 3:20 PM)
Average61 °F77%29.80 "Hg
* Reported Jul 18 1:20 AM — Aug 2 1:20 AM, Waren (Müritz), Weather by CustomWeather, © 2015

Note: Actual official high and low records may vary slightly from our data, if they occured in-between our weather recording intervals... More about our weather records

Advertising

Waren (Müritz) weather history for previous 24 hours

 ConditionsComfort  
Time TempWeatherWind HumidityBarometerVisibility
1:20 AM
Sun, Aug 2
55 °FPassing clouds.6 mph88%30.07 "HgN/A
12:20 AM55 °FPassing clouds.7 mph82%30.07 "HgN/A
11:20 PM
Sat, Aug 1
55 °FPassing clouds.8 mph88%30.07 "HgN/A
10:20 PM57 °FPassing clouds.8 mph82%30.07 "HgN/A
9:20 PM61 °FPartly sunny.12 mph72%30.04 "HgN/A
8:20 PM64 °FPartly sunny.8 mph64%30.04 "HgN/A
7:20 PM70 °FPartly sunny.3 mph46%30.04 "HgN/A
6:20 PM72 °FPartly sunny.5 mph41%30.04 "HgN/A
5:20 PM70 °FPartly sunny.5 mph40%30.04 "HgN/A
4:20 PM70 °FPartly sunny.6 mph40%30.04 "HgN/A
3:20 PM68 °FScattered clouds.6 mph43%30.07 "HgN/A
2:20 PM66 °FScattered clouds.5 mph46%30.07 "HgN/A
1:20 PM66 °FScattered clouds.8 mph46%30.07 "HgN/A
12:20 PM63 °FPassing clouds.3 mph52%30.09 "HgN/A
11:20 AM63 °FPassing clouds.8 mph56%30.09 "HgN/A
10:20 AM61 °FScattered clouds.5 mph55%30.09 "HgN/A
9:20 AM57 °FPartly sunny.3 mph72%30.09 "HgN/A
8:20 AM54 °FPartly sunny.No wind82%30.09 "HgN/A
7:20 AM46 °FPartly sunny.1 mph93%30.09 "HgN/A
6:20 AM43 °FFog.No wind100%30.09 "HgN/A
5:20 AM41 °FFog.No wind100%30.09 "HgN/A
4:20 AM43 °FFog.No wind100%30.09 "HgN/A
3:20 AM43 °FPassing clouds.No wind93%30.09 "HgN/A
2:20 AM45 °FPassing clouds.2 mph93%30.09 "HgN/A
Weather by CustomWeather, © 2015

See weather overviewHow to use our weather pages